This is the latest recevied weather packets stored in our database for station/object WC4PEM-9. If no packets are shown the sender has not sent any weather packets the latest 1 day(s).
| Time | Temp. | Humidity | Pressure | Rain* | Wind** | Luminosity | Snow |
|---|---|---|---|---|---|---|---|
| 1778081702 | 28.89° C | 58% | 1016.8 hPa | 0 mm | - | - | - |
| 1778078905 | 27.78° C | 69% | 1016.7 hPa | 0 mm | - | - | - |
| 1778078305 | 27.78° C | 72% | 1017 hPa | 0 mm | - | - | - |
| 1778078005 | 27.22° C | 73% | 1016.9 hPa | 0 mm | - | - | - |
| 1778077405 | 26.67° C | 75% | 1016.9 hPa | 0 mm | - | - | - |
| 1778077105 | 26.11° C | 76% | 1016.8 hPa | 0 mm | - | - | - |
| 1778076943 | 26.11° C | 77% | 1016.6 hPa | 0 mm | - | - | - |
| 1778076805 | 26.11° C | 77% | 1016.6 hPa | 0 mm | - | - | - |
| 1778076505 | 26.11° C | 77% | 1016.9 hPa | 0 mm | - | - | - |
| 1778076205 | 26.11° C | 78% | 1016.9 hPa | 0 mm | - | - | - |
| 1778075905 | 25.56° C | 80% | 1016.9 hPa | 0 mm | - | - | - |
| 1778075605 | 25.56° C | 80% | 1016.9 hPa | 0 mm | - | - | - |
| 1778075305 | 25.56° C | 82% | 1017 hPa | 0 mm | - | - | - |
| 1778075005 | 25° C | 82% | 1016.8 hPa | 0 mm | - | - | - |
| 1778074705 | 25° C | 83% | 1016.9 hPa | 0 mm | - | - | - |
| 1778074550 | 24.44° C | 84% | 1016.7 hPa | 0 mm | - | - | - |
| 1778074405 | 24.44° C | 84% | 1016.7 hPa | 0 mm | - | - | - |
| 1778074105 | 24.44° C | 85% | 1016.8 hPa | 0 mm | - | - | - |
| 1778073805 | 24.44° C | 85% | 1016.8 hPa | 0 mm | - | - | - |
| 1778073505 | 23.89° C | 86% | 1016.7 hPa | 0 mm | - | - | - |
| 1778073205 | 23.89° C | 87% | 1016.7 hPa | 0 mm | - | - | - |
| 1778072905 | 23.33° C | 88% | 1016.6 hPa | 0 mm | - | - | - |
| 1778072605 | 23.33° C | 89% | 1016.4 hPa | 0 mm | - | - | - |
| 1778072005 | 22.22° C | 91% | 1016.2 hPa | 0 mm | - | - | - |
| 1778071705 | 22.22° C | 92% | 1016.4 hPa | 0 mm | - | - | - |
* Rain latest hour (hover to see other rain measurements)
** Current wind speed in m/s (hover to see current wind gust speed)